Weather History for 12566 - June, 2013

Change the Weather History Date:

Thursday, June 13, 2013

  Actual Average Record
Temperature  
Mean Temperature 61 °F -  
Max Temperature 74 °F 72 °F - ()
Min Temperature 48 °F 52 °F - ()
Degree Days  
Heating Degree Days 4    
Growing Degree Days 11 (Base 50)    
Moisture  
Dew Point 52 °F    
Average Humidity 70    
Maximum Humidity 100    
Minimum Humidity 28    
Precipitation  
Precipitation 0.00 in 0.12 in - ()
Sea Level Pressure  
Sea Level Pressure 30.11 in    
Wind  
Wind Speed 2 mph ()    
Max Wind Speed 9 mph    
Max Gust Speed -    
Visibility 4.6 miles    
Events Fog    
T = Trace of Precipitation, MM = Missing Value Source: Averaged Metar Reports

Daily Weather History Graph

Daily Weather History Graph

Search for Another Location

Airport or City:

Trip Planner

Search our weather history database for the weather conditions in past years. The results will help you decide how hot, cold, wet, or windy it might be!

Date:

Astronomy

Jun. 13, 2013 Rise Set
Actual Time 4:30 AM CEST 8:51 PM CEST
Civil Twilight 3:46 AM CEST 9:35 PM CEST
Nautical Twilight 2:41 AM CEST 10:41 PM CEST
Astronomical Twilight 1:13 AM CEST 12:08 AM CEST
Moon 9:12 AM CEST (6/13) 11:22 PM CEST (6/13)
Length of Visible Light 17h 49m
Length of Day
16h 20m
Waxing Crescent, 19% of the Moon is Illuminated
Jun 13
Waxing Crescent
Jun 16
First Quarter
Jun 23
Full
Jun 30
Last Quarter
Jul 8
New

Hourly Weather History & Observations

Time (CEST) Temp. Dew Point Humidity Pressure Visibility Wind Dir Wind Speed Gust Speed Precip Events Conditions
12:00 AM 53.6 °F 53.6 °F 100% 30.15 in - Calm Calm - N/A   Clear
12:30 AM 53.6 °F 53.6 °F 100% 30.15 in - Calm Calm - N/A   Clear
1:00 AM 53.6 °F 51.8 °F 94% 30.15 in - Calm Calm - N/A   Clear
1:30 AM 51.8 °F 50.0 °F 94% 30.15 in - Calm Calm - N/A   Clear
2:00 AM 51 °F 51 °F 99% 30.17 in 4 mi Calm Calm - - Fog Patches of Fog
2:00 AM 51.8 °F 51.8 °F 100% 30.15 in 3.7 mi Calm Calm - N/A Fog Fog
2:30 AM 50.0 °F 50.0 °F 100% 30.15 in 3.1 mi Calm Calm - N/A Fog Fog
3:00 AM 50.0 °F 50.0 °F 100% 30.15 in 3.1 mi Calm Calm - N/A   Mist
3:30 AM 50.0 °F 50.0 °F 100% 30.15 in 3.1 mi Calm Calm - N/A   Partly Cloudy
4:00 AM 48.2 °F 48.2 °F 100% 30.15 in 0.1 mi Calm Calm - N/A Fog Fog
4:30 AM 48.2 °F 48.2 °F 100% 30.15 in 0.1 mi Calm Calm - N/A Fog Fog
5:00 AM 49 °F 48 °F 97% 30.19 in 0 mi WSW 2.2 mph - - Fog Partial Fog
5:00 AM 48.2 °F 48.2 °F 100% 30.15 in 0.1 mi Calm Calm - N/A Fog Fog
5:30 AM 48.2 °F 48.2 °F 100% 30.15 in 0.1 mi Calm Calm - N/A Fog Fog
6:00 AM 48.2 °F 48.2 °F 100% 30.15 in 0.1 mi West 2.3 mph - N/A Fog Fog
6:30 AM 51.8 °F 51.8 °F 100% 30.15 in 1.9 mi Calm Calm - N/A   Partly Cloudy
7:00 AM 53.6 °F 53.6 °F 100% 30.15 in 3.7 mi Calm Calm - N/A   Unknown
7:30 AM 55.4 °F 55.4 °F 100% 30.15 in 4.3 mi Calm Calm - N/A   Unknown
8:00 AM 59 °F 56 °F 85% 30.18 in 6 mi South 2.2 mph - -   Partly Cloudy
8:00 AM 59.0 °F 57.2 °F 94% 30.15 in - Calm Calm - N/A   Clear
8:30 AM 60.8 °F 57.2 °F 88% 30.15 in - Variable 1.2 mph - N/A   Clear
9:00 AM 64.4 °F 57.2 °F 77% 30.15 in - Variable 1.2 mph - N/A   Clear
9:30 AM 66.2 °F 53.6 °F 64% 30.15 in - Variable 1.2 mph - N/A   Clear
10:00 AM 68.0 °F 53.6 °F 60% 30.15 in 6.2 mi Variable 1.2 mph - N/A   Partly Cloudy
10:30 AM 69.8 °F 53.6 °F 56% 30.15 in 6.2 mi Variable 2.3 mph - N/A   Partly Cloudy
11:00 AM 70 °F 54 °F 47% 30.15 in 25 mi ENE 4.5 mph - -   Scattered Clouds
11:00 AM 69.8 °F 53.6 °F 56% 30.15 in 6.2 mi Variable 2.3 mph - N/A   Partly Cloudy
11:30 AM 71.6 °F 50.0 °F 46% 30.15 in 6.2 mi Variable 2.3 mph - N/A   Partly Cloudy
12:00 PM 71.6 °F 50.0 °F 46% 30.15 in 6.2 mi Variable 2.3 mph - N/A   Partly Cloudy
12:30 PM 73.4 °F 50.0 °F 44% 30.15 in 6.2 mi Variable 2.3 mph - N/A   Partly Cloudy
1:00 PM 71.6 °F 48.2 °F 43% 30.12 in 6.2 mi Variable 2.3 mph - N/A   Partly Cloudy
1:30 PM 75.2 °F 50.0 °F 41% 30.12 in 6.2 mi Variable 2.3 mph - N/A   Partly Cloudy
2:00 PM 74 °F 48 °F 28% 30.10 in 31 mi SW 2.2 mph - -   Scattered Clouds
2:00 PM 73.4 °F 48.2 °F 41% 30.12 in 6.2 mi Calm Calm - N/A   Partly Cloudy
2:30 PM 71.6 °F 48.2 °F 43% 30.12 in 6.2 mi NE 3.5 mph - N/A   Partly Cloudy
3:00 PM 75.2 °F 50.0 °F 41% 30.09 in 6.2 mi Variable 2.3 mph - N/A   Partly Cloudy
3:30 PM 75.2 °F 50.0 °F 41% 30.09 in 6.2 mi ENE 3.5 mph - N/A   Partly Cloudy
4:00 PM 75.2 °F 48.2 °F 38% 30.09 in 6.2 mi East 3.5 mph - N/A   Partly Cloudy
4:30 PM 73.4 °F 48.2 °F 41% 30.09 in 6.2 mi ENE 6.9 mph - N/A   Partly Cloudy
5:00 PM 74 °F 51 °F 33% 30.06 in 31 mi ENE 6.7 mph - -   Scattered Clouds
5:00 PM 73.4 °F 50.0 °F 44% 30.06 in - ENE 6.9 mph - N/A   Clear
5:30 PM 73.4 °F 51.8 °F 47% 30.06 in - ENE 5.8 mph - N/A   Clear
6:00 PM 73.4 °F 53.6 °F 50% 30.06 in - East 5.8 mph - N/A   Clear
6:30 PM 73.4 °F 50.0 °F 44% 30.06 in - ENE 9.2 mph - N/A   Clear
7:00 PM 71.6 °F 53.6 °F 53% 30.04 in - ENE 9.2 mph - N/A   Clear
7:30 PM 71.6 °F 53.6 °F 53% 30.04 in - ENE 9.2 mph - N/A   Clear
8:00 PM 70 °F 54 °F 48% 30.04 in 31 mi NE 6.7 mph - -   Clear
8:00 PM 69.8 °F 55.4 °F 60% 30.04 in - ENE 9.2 mph - N/A   Clear
8:30 PM 68.0 °F 55.4 °F 64% 30.04 in - ENE 4.6 mph - N/A   Clear
9:00 PM 66.2 °F 55.4 °F 68% 30.04 in - ENE 3.5 mph - N/A   Clear
9:30 PM 64.4 °F 55.4 °F 73% 30.04 in - NE 3.5 mph - N/A   Clear
10:00 PM 62.6 °F 55.4 °F 77% 30.04 in - NE 4.6 mph - N/A   Clear
10:30 PM 60.8 °F 55.4 °F 82% 30.04 in - NE 1.2 mph - N/A   Clear
11:00 PM 61 °F 55 °F 75% 30.04 in 19 mi NE 6.7 mph - -  
11:00 PM 59.0 °F 53.6 °F 82% 30.04 in - NE 4.6 mph - N/A   Clear
11:30 PM 57.2 °F 53.6 °F 88% 30.04 in - NE 2.3 mph - N/A   Clear